DL4JCP-6 Weather Reports


time (UTC)temp
F
wind
direction
speed
knots
gust
knots
rain 1hr
in
rain 24hr
in
rain mn
in
humidity
%
barometer
mb
20260506033313 49 195 0.9 6.1 0.00 0.72 0.01 95 1006.2
20260506031813 50 195 1.7 3.5 0.00 0.72 0.01 95 1006.5
20260506030313 50 169 3.5 6.1 0.00 0.72 0.01 96 1006.4
20260506024813 49 188 1.7 4.3 0.00 0.72 0.01 96 1006.5
20260506023313 49 192 0.9 5.2 0.00 0.72 0.01 96 1006.6
20260506021813 49 198 0.0 3.5 0.00 0.72 0.01 96 1006.6
20260506020313 49 205 0.9 3.5 0.00 0.72 0.01 96 1006.6
20260506014813 48 182 0.0 0.0 0.00 0.72 0.01 96 1006.5
20260506013313 49 182 0.0 0.0 0.00 0.72 0.01 96 1006.7
20260506010312 49 197 0.9 4.3 0.00 0.72 0.01 96 1007.0
20260506004817 48 157 0.0 0.0 0.00 0.72 0.01 96 1006.8
20260506003312 48 157 0.9 2.6 0.00 0.72 0.01 96 1007.1
20260506001813 48 157 0.0 0.0 0.01 0.72 0.01 96 1007.2
20260506000312 48 157 0.0 0.0 0.01 0.72 0.01 95 1007.4
20260505234812 49 157 0.0 0.0 0.01 0.72 0.01 95 1007.6
20260505233313 49 157 0.9 2.6 0.01 0.72 0.01 95 1007.5
20260505231812 49 157 1.7 4.3 0.00 0.71 0.00 95 1007.4
20260505230312 50 157 0.0 0.0 0.00 0.71 0.00 95 1007.2
20260505224812 50 157 0.9 1.7 0.00 0.71 0.00 95 1007.4
20260505223312 50 154 0.0 0.0 0.00 0.71 0.00 95 1007.6
20260505221811 50 154 0.0 0.0 0.03 0.71 0.00 95 1007.8
20260505220311 51 154 0.9 2.6 0.09 0.71 0.00 95 1008.1
20260505214812 51 82 0.9 2.6 0.13 0.71 0.71 95 1007.9
20260505213311 51 80 0.0 3.5 0.20 0.71 0.71 95 1008.0
20260505211812 51 80 0.0 0.0 0.22 0.68 0.68 95 1008.5
20260505210311 51 80 0.0 0.0 0.22 0.62 0.62 94 1008.5
20260505204811 51 130 0.0 0.0 0.28 0.57 0.57 94 1008.8
20260505203311 51 176 0.9 1.7 0.36 0.51 0.51 94 1009.0
20260505201811 51 176 2.6 7.8 0.35 0.46 0.46 94 1008.9
20260505194811 51 242 7.0 15.6 0.19 0.29 0.29 92 1008.2
20260505193311 53 231 13.9 23.5 0.05 0.15 0.15 89 1008.3
20260505192812 55 208 4.3 13.9 0.03 0.13 0.13 93 1008.1
20260505192311 55 207 2.6 6.1 0.02 0.12 0.12 94 1007.6
20260505191812 55 56 3.5 7.0 0.00 0.10 0.10 93 1007.0
20260505191311 55 59 3.5 8.7 0.00 0.10 0.10 93 1007.0
20260505190812 55 68 2.6 6.1 0.00 0.10 0.10 93 1006.8
20260505190311 55 66 4.3 7.0 0.00 0.10 0.10 93 1006.6
20260505185810 55 56 4.3 7.0 0.00 0.10 0.10 93 1006.7
20260505185310 55 54 3.5 9.6 0.00 0.10 0.10 93 1006.7
20260505184812 55 56 1.7 5.2 0.00 0.10 0.10 93 1006.6
20260505184311 55 72 3.5 7.8 0.00 0.10 0.10 93 1006.6
20260505183811 55 57 2.6 9.6 0.00 0.10 0.10 93 1006.5
20260505183314 56 65 1.7 9.6 0.00 0.10 0.10 93 1006.4
20260505183311 56 65 2.6 9.6 0.00 0.10 0.10 93 1006.4
20260505182811 56 61 1.7 7.0 0.00 0.10 0.10 93 1006.5
20260505182311 56 57 1.7 5.2 0.00 0.10 0.10 93 1006.6
20260505181814 56 21 0.9 1.7 0.00 0.10 0.10 93 1006.7
20260505181311 56 20 1.7 3.5 0.00 0.10 0.10 93 1006.8
20260505180815 56 20 2.6 6.1 0.00 0.10 0.10 93 1006.9
20260505180314 56 16 2.6 8.7 0.00 0.10 0.10 93 1007.0
20260505180310 56 16 1.7 8.7 0.00 0.10 0.10 93 1007.0
20260505175811 56 342 2.6 7.0 0.00 0.10 0.10 93 1007.0
20260505175310 56 28 3.5 9.6 0.00 0.10 0.10 93 1007.0
20260505174813 56 335 2.6 4.3 0.00 0.10 0.10 93 1007.1
20260505174310 56 10 2.6 6.1 0.00 0.10 0.10 93 1007.0
20260505173810 57 348 2.6 6.1 0.00 0.10 0.10 93 1006.9
20260505173313 57 22 4.3 8.7 0.00 0.10 0.10 93 1006.9
20260505173310 57 22 4.3 8.7 0.00 0.10 0.10 93 1006.9
20260505172811 57 30 4.3 7.0 0.00 0.10 0.10 93 1006.9
20260505172310 57 52 3.5 7.8 0.01 0.10 0.10 93 1006.9
20260505171814 57 25 3.5 8.7 0.01 0.10 0.10 93 1007.0
20260505171811 57 25 5.2 8.7 0.01 0.10 0.10 93 1007.0
20260505171311 57 17 4.3 8.7 0.02 0.10 0.10 93 1007.0
20260505170812 58 41 2.6 4.3 0.03 0.10 0.10 93 1007.2
20260505170313 58 24 3.5 7.8 0.05 0.10 0.10 93 1007.3
20260505170310 58 24 3.5 7.8 0.05 0.10 0.10 93 1007.3
20260505165811 58 20 2.6 7.8 0.05 0.10 0.10 93 1007.3
20260505165312 58 19 2.6 6.1 0.05 0.10 0.10 93 1007.4
20260505164813 58 5 2.6 6.1 0.05 0.10 0.10 93 1007.4
20260505164811 58 5 2.6 6.1 0.05 0.10 0.10 93 1007.4
20260505164311 58 21 3.5 6.1 0.05 0.10 0.10 92 1007.3
20260505163811 58 20 2.6 5.2 0.05 0.10 0.10 92 1007.5
20260505163311 58 5 2.6 6.1 0.05 0.10 0.10 92 1007.6
20260505162811 58 331 1.7 2.6 0.05 0.10 0.10 92 1007.6
20260505162310 58 331 0.9 3.5 0.04 0.09 0.09 91 1007.7
20260505161811 59 309 2.6 3.5 0.04 0.09 0.09 91 1007.7
20260505161310 59 293 0.9 3.5 0.03 0.09 0.09 91 1008.2
20260505160811 59 312 2.6 4.3 0.02 0.07 0.07 91 1008.2
20260505160311 59 336 1.7 2.6 0.00 0.06 0.06 91 1008.0
20260505153313 60 51 3.5 9.6 0.00 0.06 0.06 90 1008.0
20260505153310 60 51 4.3 9.6 0.00 0.06 0.06 90 1008.0
20260505152810 60 13 3.5 7.0 0.00 0.06 0.06 90 1007.9
20260505152310 60 5 1.7 4.3 0.00 0.06 0.06 89 1008.1
20260505151812 60 59 0.9 7.0 0.00 0.06 0.06 89 1008.1
20260505151810 60 59 2.6 7.0 0.00 0.06 0.06 89 1008.1
20260505151309 60 53 3.5 8.7 0.01 0.06 0.06 88 1008.1
20260505150814 60 51 3.5 6.1 0.01 0.06 0.06 88 1008.2
20260505150311 60 51 2.6 5.2 0.01 0.06 0.06 88 1008.3
20260505140317 60 82 1.7 3.5 0.01 0.05 0.05 85 1008.6
20260505140311 60 82 2.6 3.5 0.01 0.05 0.05 85 1008.6
20260505130310 63 66 2.6 7.0 0.00 0.04 0.04 79 1009.2
20260505124817 63 360 3.5 8.7 0.00 0.04 0.04 79 1009.4
20260505124811 63 360 4.3 8.7 0.00 0.04 0.04 79 1009.4
20260505124311 64 32 4.3 9.6 0.00 0.04 0.04 78 1009.4
20260505123810 64 323 5.2 7.8 0.00 0.04 0.04 78 1009.4
20260505123317 64 10 4.3 9.6 0.00 0.04 0.04 79 1009.3
20260505123310 64 10 3.5 9.6 0.00 0.04 0.04 79 1009.3
20260505122810 64 5 5.2 7.8 0.00 0.04 0.04 78 1009.4
20260505122310 65 11 6.1 9.6 0.00 0.04 0.04 76 1009.5
20260505121818 65 294 3.5 7.8 0.00 0.04 0.04 76 1009.5
20260505121814 65 294 1.7 7.8 0.00 0.04 0.04 76 1009.5
20260505121310 66 348 3.5 8.7 0.00 0.04 0.04 77 1009.7
20260505120810 65 321 2.6 7.8 0.00 0.04 0.04 77 1009.6
20260505120314 65 351 2.6 6.1 0.00 0.04 0.04 75 1009.6
20260505120310 65 351 3.5 6.1 0.00 0.04 0.04 75 1009.6
20260505115810 65 79 4.3 7.8 0.01 0.04 0.04 73 1009.8
20260505115310 65 42 3.5 5.2 0.03 0.04 0.04 74 1009.9
20260505114814 65 346 2.6 5.2 0.03 0.04 0.04 77 1009.9
20260505113317 62 81 1.7 4.3 0.03 0.04 0.04 82 1009.9
20260505111814 61 20 1.7 2.6 0.03 0.04 0.04 85 1010.0
20260505110314 61 10 2.6 4.3 0.03 0.04 0.04 83 1009.9
20260505101814 64 355 2.6 6.1 0.00 0.01 0.01 72 1010.0
20260505100314 65 309 2.6 4.3 0.00 0.01 0.01 72 1010.4
20260505094816 65 44 2.6 7.0 0.00 0.01 0.01 65 1010.4
20260505093317 66 344 3.5 7.0 0.00 0.01 0.01 69 1010.5
20260505091816 65 11 3.5 7.8 0.00 0.01 0.01 75 1010.7
20260505090314 63 28 2.6 7.0 0.00 0.01 0.01 73 1010.6
20260505084816 63 106 3.5 7.0 0.00 0.01 0.01 74 1010.7
20260505083313 61 74 1.7 3.5 0.00 0.01 0.01 79 1010.6
20260505081816 60 64 0.9 3.5 0.00 0.01 0.01 82 1010.7
20260505080313 59 63 2.6 4.3 0.00 0.01 0.01 82 1010.7
20260505074813 59 58 1.7 4.3 0.00 0.01 0.01 82 1010.9
20260505073313 59 40 0.0 2.6 0.00 0.01 0.01 84 1011.1
20260505071813 58 311 0.9 2.6 0.00 0.01 0.01 86 1011.2
20260505070313 56 175 0.0 1.7 0.00 0.01 0.01 89 1011.1
20260505064816 55 175 0.9 2.6 0.00 0.01 0.01 92 1011.0
20260505063313 53 178 0.0 0.0 0.00 0.01 0.01 92 1011.2
20260505061815 53 178 0.9 2.6 0.01 0.01 0.01 92 1011.3
20260505060312 53 178 0.0 0.9 0.01 0.01 0.01 93 1011.3
20260505054815 52 178 0.0 1.7 0.01 0.01 0.01 92 1011.4
20260505053315 52 136 0.9 3.5 0.01 0.01 0.01 91 1011.5
20260505051812 52 107 0.0 0.0 0.00 0.00 0.00 91 1011.5
20260505050312 52 107 0.0 0.0 0.00 0.00 0.00 90 1011.4
20260505040312 51 107 0.0 0.0 0.00 0.00 0.00 89 1011.6
20260505034812 51 107 0.0 0.0 0.00 0.00 0.00 89 1011.6